| time (UTC) | temp F | wind direction | speed MPH | gust MPH | rain 1hr in | rain 24hr in | rain mn in | humidity % | barometer mb |
| 20260506182106 | 63 | 170 | 9.0 | 0.0 | 0.00 | 0.00 | 0.00 | 55 | |
| 20260506172030 | 64 | 170 | 18.0 | 29.0 | 0.00 | 0.00 | 0.00 | 48 | |
| 20260506162248 | 64 | 170 | 18.0 | 0.0 | 0.00 | 0.00 | 0.00 | 52 | |
| 20260506152105 | 66 | 160 | 18.0 | 0.0 | 0.00 | 0.00 | 0.00 | 48 | |
| 20260506142033 | 64 | 180 | 18.0 | 0.0 | 0.00 | 0.00 | 0.00 | 48 | |
| 20260506132033 | 64 | 180 | 16.0 | 0.0 | 0.00 | 0.00 | 0.00 | 48 | |
| 20260506122033 | 66 | 190 | 12.0 | 0.0 | 0.00 | 0.00 | 0.00 | 45 | |
| 20260506112027 | 63 | 200 | 9.0 | 0.0 | 0.00 | 0.00 | 0.00 | 55 | |
| 20260506102217 | 63 | 220 | 12.0 | 0.0 | 0.00 | 0.00 | 0.00 | 51 | |
| 20260506092000 | 61 | 230 | 12.0 | 0.0 | 0.00 | 0.00 | 0.00 | 63 | |
| 20260506082026 | 57 | 270 | 14.0 | 0.0 | 0.00 | 0.00 | 0.00 | 71 | |
| 20260506072027 | 55 | 260 | 16.0 | 0.0 | 0.00 | 0.00 | 0.00 | 71 | |
| 20260506062051 | 54 | 270 | 18.0 | 0.0 | 0.00 | 0.00 | 0.00 | 76 | |
| 20260506042231 | 50 | 240 | 9.0 | 0.0 | 0.00 | 0.00 | 0.00 | 99 | |
| 20260506032029 | 50 | 260 | 9.0 | 0.0 | 0.00 | 0.00 | 0.00 | 99 | |
| 20260506022027 | 52 | 300 | 5.0 | 0.0 | 0.00 | 0.00 | 0.00 | 93 | |
| 20260506012117 | 52 | 330 | 9.0 | 0.0 | 0.00 | 0.00 | 0.00 | 93 | |
| 20260506002025 | 54 | 260 | 5.0 | 0.0 | 0.00 | 0.00 | 0.00 | 71 | |
| 20260505232019 | 55 | 200 | 16.0 | 0.0 | 0.00 | 0.00 | 0.00 | 62 | |
| 20260505222027 | 55 | 170 | 22.0 | 0.0 | 0.00 | 0.00 | 0.00 | 62 | |
| 20260505212105 | 57 | 170 | 22.0 | 0.0 | 0.00 | 0.00 | 0.00 | 58 | |
| 20260505202048 | 59 | 170 | 20.0 | 0.0 | 0.00 | 0.00 | 0.00 | 54 | |
| 20260505192048 | 63 | 160 | 18.0 | 0.0 | 0.00 | 0.00 | 0.00 | 48 |